Regional Weather Roundup
Issued by NWS Green Bay, WI

Home | Current Version | Previous Version | Graphics & Text | Print | Product List | Glossary Off
Versions: 1 2 3 4 5 6 7 8 9 10 11 12 13 14 15 16 17 18 19 20 21 22 23 24 25 26 27 28 29 30 31 32 33 34 35 36 37 38 39 40 41 42 43 44 45 46 47 48 49 50

000
ASUS43 KGRB 210059
RWRGRB

NORTH-CENTRAL AND NORTHEAST WISCONSIN REGIONAL WEATHER ROUNDUP
NATIONAL WEATHER SERVICE GREEN BAY WI
800 PM CDT WED AUG 20 2014

WIZ005-009-010>012-018-019-210200-
NORTH CENTRAL WISCONSIN

CITY           SKY/WX    TMP DP  RH WIND       PRES   REMARKS
IRONWOOD       CLOUDY    64  61  88 CALM      29.92S
MANITOWISH WTR NOT AVBL
ARBOR VITAE    NOT AVBL
EAGLE RIVER    NOT AVBL
LAND O LAKES   NOT AVBL
RHINELANDER    CLOUDY    65  62  90 CALM      29.96R
PHILLIPS       CLOUDY    66  62  87 NE3       29.93F
ANTIGO         NOT AVBL
TOMAHAWK       NOT AVBL
MERRILL        NOT AVBL
$$

WIZ013-073-210200-
NORTHEAST WISCONSIN

CITY           SKY/WX    TMP DP  RH WIND       PRES   REMARKS
IRON MOUNTAIN  CLOUDY    67  61  81 N6        29.93S
MARINETTE      MOCLDY    66  63  88 CALM      29.91R
$$

WIZ017-030-035>037-045-210200-
CENTRAL WISCONSIN

CITY           SKY/WX    TMP DP  RH WIND       PRES   REMARKS
MEDFORD        NOT AVBL
WAUSAU         PTCLDY    68  63  84 NE3       29.90S
MOSINEE        PTCLDY    66  63  88 VRB3      29.92S
MARSHFIELD     PTCLDY    71  62  73 CALM      29.91S
WISC RAPIDS    PTCLDY    69  63  81 CALM      29.92R
STEVENS POINT  NOT AVBL
WAUPACA        NOT AVBL
SHAWANO        PTCLDY    69  64  85 CALM      29.91S
CLINTONVILLE   NOT AVBL
$$

WIZ038-039-048-051-210200-
FOX VALLEY

CITY           SKY/WX    TMP DP  RH WIND       PRES   REMARKS
NWS GREEN BAY  CLEAR     66  63  90 CALM      29.91R
APPLETON       PTCLDY    72  61  68 VRB5      29.92
OSHKOSH        PTCLDY    72  64  76 NE6       29.91R
FOND DU LAC    MOCLDY    73  65  75 E5        29.91R
$$

WIZ022-050-052-210200-
EAST CENTRAL WISCONSIN

CITY           SKY/WX    TMP DP  RH WIND       PRES   REMARKS
STURGEON BAY   CLEAR     66  61  82 CALM      29.93R
MANITOWOC      NOT AVBL
SHEBOYGAN      CLEAR     67  63  87 SE5       29.92R
$$

LMZ563-521-522-541>543-210200-
LAKESHORE

STATION/POSITION TIME  TEMP    WIND        PRES    VSBY  WAVE
                       AIR SEA DIR/SP/G                  HT/PER
                 (UTC) (F)     (DEG/KT/KT) (MB)    (MI)  (FT/S)
SHEBOYGAN LKSHOR 0000   67 67  130/  2/  2 1012.8F
KEWAUNEE LKSHORE 0000   66     180/  8/ 10 1012.2R
TWO RIVERS CG    0000   66 72                N/A       6   1
NORTHPORT PIER   0000   65     140/  4/  5 1013.2R
N MID LAKE BUOY  0000   63 63  220/  6/  6 1012.7R         1
S GREEN BAY BUOY 0000   70     VRB  4      1013.7R
SISTER BAY LKSHO 0000   68        CALM       N/A
CHAMBERS ISLAND  0000   68      30/  3/  4 1013.2R
MENOMINEE LKSHOR 0000   69     110/  2/  2 1013.3R
$$



USA.gov is the U.S. government's official web portal to all federal, state and local government web resources and services.